{"data":{"norad_id":61872,"intl_designator":"2024-203D","name":"2024-203D","alt_names":[],"object_type":"PAYLOAD","status":"ACTIVE","operator":null,"country":"PRC","launch_date":"2024-11-09","launch_site_code":"JSC","launch_vehicle":null,"mission":null,"orbit_class":"UNKNOWN","rcs_meters":null,"size_class":null,"mass_kg":null,"dimensions":null,"purposes":[],"wikipedia_slug":null,"has_3d_model":false,"image_url":null,"decayed_at":null,"tle_current":{"epoch":"2026-05-24T19:38:06.278208Z","epoch_age_seconds":97571,"freshness":"FRESH","line1":"1 61872U 24203D   26144.81812822  .00011332  00000+0  43311-3 0  9998","line2":"2 61872  97.4263 215.0779 0012254  70.0626 290.1931 15.26705251 85353","mean_motion":15.26705251,"eccentricity":0.0012254,"inclination_deg":97.4263,"raan_deg":215.0779,"arg_perigee_deg":70.0626,"mean_anomaly_deg":290.1931,"bstar":0.00043311,"rev_number":8535,"period_min":94.320760281449,"perigee_km":477.25875112055,"apogee_km":494.08056848239,"semimajor_km":6863.8066598015,"source":"CELESTRAK","updated_at":"2026-05-25T13:38:02.595240Z"}}}